Time,TemperatureF,DewpointF,PressureIn,WindDirection,WindDirectionDegrees,WindSpeedMPH,WindSpeedGustMPH,Humidity,HourlyPrecipIn,Conditions,Clouds,dailyrainin,SoftwareType,DateUTC
2013-10-04 00:32:00,73.8,71.3,0.00,SSW,198,6.1,7.1,92,0.00, ,,-99.99,VWS V12.07,2013-10-04 04:32:00,
2013-10-04 00:34:00,74.5,71.9,0.00,SSE,153,5.3,7.1,92,0.00, ,,-99.99,VWS V12.07,2013-10-04 04:34:00,
2013-10-04 00:36:00,74.1,71.6,0.00,South,173,5.2,7.1,92,0.00, ,,-99.99,VWS V12.07,2013-10-04 04:36:00,
2013-10-04 00:42:00,74.4,71.9,0.00,SSE,160,5.2,6.3,92,0.00, ,,-99.99,VWS V12.07,2013-10-04 04:42:00,
2013-10-04 00:43:00,73.6,71.1,0.00,SSE,168,5.7,6.3,92,0.00, ,,-99.99,VWS V12.07,2013-10-04 04:43:00,
2013-10-04 00:46:00,74.2,71.8,0.00,SSE,160,2.1,7.3,92,0.00, ,,-99.99,VWS V12.07,2013-10-04 04:46:00,
2013-10-04 00:47:00,74.4,72.0,0.00,South,174,4.5,7.3,92,0.00, ,,-99.99,VWS V12.07,2013-10-04 04:47:00,
2013-10-04 00:48:00,73.4,71.0,0.00,South,180,4.8,7.3,92,0.00, ,,-99.99,VWS V12.07,2013-10-04 04:48:00,
2013-10-04 00:53:00,74.5,72.1,0.00,South,181,5.0,7.3,92,0.00, ,,-99.99,VWS V12.07,2013-10-04 04:53:00,
2013-10-04 00:55:00,73.2,70.8,0.00,SE,136,0.0,7.3,92,0.00, ,,-99.99,VWS V12.07,2013-10-04 04:55:00,
2013-10-04 00:56:00,74.4,72.0,0.00,SE,136,0.0,7.3,92,0.00, ,,-99.99,VWS V12.07,2013-10-04 04:56:00,
2013-10-04 01:02:00,74.2,71.8,0.00,SE,136,0.0,0.0,92,0.00, ,,-99.99,VWS V12.07,2013-10-04 05:02:00,
2013-10-04 01:03:00,72.7,70.2,0.00,SE,136,0.0,0.0,92,0.00, ,,-99.99,VWS V12.07,2013-10-04 05:03:00,
2013-10-04 01:06:00,74.1,71.7,0.00,SE,136,0.0,0.0,92,0.00, ,,-99.99,VWS V12.07,2013-10-04 05:06:00,
2013-10-04 01:12:00,73.3,70.9,0.00,SE,136,0.0,0.0,92,0.00, ,,-99.99,VWS V12.07,2013-10-04 05:12:00,
2013-10-04 01:18:00,74.4,72.0,0.00,SE,136,0.0,0.0,92,0.00, ,,-99.99,VWS V12.07,2013-10-04 05:18:00,
2013-10-04 01:23:00,74.0,71.6,0.00,SE,136,0.0,0.0,92,0.00, ,,-99.99,VWS V12.07,2013-10-04 05:23:00,
2013-10-04 01:24:00,73.2,70.8,0.00,SE,136,0.0,0.0,92,0.00, ,,-99.99,VWS V12.07,2013-10-04 05:24:00,
2013-10-04 01:29:00,74.2,71.8,0.00,SE,136,0.0,0.0,92,0.00, ,,-99.99,VWS V12.07,2013-10-04 05:29:00,
2013-10-04 01:34:00,74.4,72.1,0.00,SE,136,0.0,0.0,92,0.00, ,,-99.99,VWS V12.07,2013-10-04 05:34:00,
2013-10-04 01:39:00,73.8,71.5,0.00,SE,136,0.0,0.0,93,0.00, ,,-99.99,VWS V12.07,2013-10-04 05:39:00,
2013-10-04 01:44:00,73.8,71.6,0.00,SSE,150,6.2,7.3,93,0.00, ,,-99.99,VWS V12.07,2013-10-04 05:44:00,
2013-10-04 01:49:00,73.7,71.5,0.00,South,181,6.3,8.1,93,0.00, ,,-99.99,VWS V12.07,2013-10-04 05:49:00,
2013-10-04 01:54:00,73.8,71.6,0.00,South,182,7.3,8.5,93,0.00, ,,-99.99,VWS V12.07,2013-10-04 05:54:00,
2013-10-04 01:59:00,73.4,71.1,0.00,South,190,4.7,9.2,92,0.00, ,,-99.99,VWS V12.07,2013-10-04 05:59:00,
2013-10-04 02:04:00,73.3,71.0,0.00,SSE,167,6.6,8.5,92,0.00, ,,-99.99,VWS V12.07,2013-10-04 06:04:00,
2013-10-04 02:09:00,73.4,71.0,0.00,South,177,7.5,8.5,92,0.00, ,,-99.99,VWS V12.07,2013-10-04 06:09:00,
2013-10-04 02:14:00,73.9,71.4,0.00,SSE,153,4.4,8.8,92,0.00, ,,-99.99,VWS V12.07,2013-10-04 06:14:00,
2013-10-04 02:19:00,74.0,71.4,0.00,South,177,5.2,8.8,92,0.00, ,,-99.99,VWS V12.07,2013-10-04 06:19:00,
2013-10-04 02:24:00,73.6,71.0,0.00,SSW,192,5.3,7.5,92,0.00, ,,-99.99,VWS V12.07,2013-10-04 06:24:00,
2013-10-04 02:29:00,74.0,71.4,0.00,South,170,5.3,7.5,92,0.00, ,,-99.99,VWS V12.07,2013-10-04 06:29:00,
2013-10-04 02:34:00,73.3,70.7,0.00,SSE,157,0.0,7.5,92,0.00, ,,-99.99,VWS V12.07,2013-10-04 06:34:00,
2013-10-04 02:39:00,73.9,71.1,0.00,South,184,5.5,7.5,91,0.00, ,,-99.99,VWS V12.07,2013-10-04 06:39:00,
2013-10-04 02:44:00,74.3,71.4,0.00,SE,139,0.0,6.7,91,0.00, ,,-99.99,VWS V12.07,2013-10-04 06:44:00,
2013-10-04 02:49:00,73.5,70.5,0.00,SE,146,0.0,6.7,90,0.00, ,,-99.99,VWS V12.07,2013-10-04 06:49:00,
2013-10-04 02:54:00,72.8,69.7,0.00,SSE,159,4.3,6.7,90,0.00, ,,-99.99,VWS V12.07,2013-10-04 06:54:00,
2013-10-04 02:59:00,73.8,70.5,0.00,South,190,5.9,6.7,90,0.00, ,,-99.99,VWS V12.07,2013-10-04 06:59:00,
2013-10-04 03:04:00,73.4,70.0,0.00,South,182,5.6,6.1,89,0.00, ,,-99.99,VWS V12.07,2013-10-04 07:04:00,
2013-10-04 03:09:00,73.0,69.5,0.00,South,178,5.0,6.3,89,0.00, ,,-99.99,VWS V12.07,2013-10-04 07:09:00,
2013-10-04 03:14:00,73.2,69.6,0.00,SSE,166,3.4,6.3,88,0.00, ,,-99.99,VWS V12.07,2013-10-04 07:14:00,
2013-10-04 03:19:00,72.3,68.6,0.00,South,170,4.7,6.3,88,0.00, ,,-99.99,VWS V12.07,2013-10-04 07:19:00,
2013-10-04 03:24:00,72.6,68.8,0.00,South,173,5.5,6.8,88,0.00, ,,-99.99,VWS V12.07,2013-10-04 07:24:00,
2013-10-04 03:29:00,72.5,68.6,0.00,South,175,5.8,6.8,88,0.00, ,,-99.99,VWS V12.07,2013-10-04 07:29:00,
2013-10-04 03:34:00,73.2,69.3,0.00,SE,136,0.0,6.8,88,0.00, ,,-99.99,VWS V12.07,2013-10-04 07:34:00,
2013-10-04 03:39:00,73.8,70.0,0.00,SE,136,0.0,6.8,88,0.00, ,,-99.99,VWS V12.07,2013-10-04 07:39:00,
2013-10-04 03:44:00,74.4,70.6,0.00,SE,136,0.0,0.0,88,0.00, ,,-99.99,VWS V12.07,2013-10-04 07:44:00,
2013-10-04 03:49:00,73.3,69.6,0.00,SE,136,0.0,0.0,88,0.00, ,,-99.99,VWS V12.07,2013-10-04 07:49:00,
2013-10-04 03:54:00,74.4,70.7,0.00,SE,136,0.0,0.0,88,0.00, ,,-99.99,VWS V12.07,2013-10-04 07:54:00,
2013-10-04 03:59:00,74.3,70.7,0.00,SE,136,0.0,0.0,88,0.00, ,,-99.99,VWS V12.07,2013-10-04 07:59:00,
2013-10-04 04:04:00,73.7,70.3,0.00,SE,136,0.0,0.0,89,0.00, ,,-99.99,VWS V12.07,2013-10-04 08:04:00,
2013-10-04 04:09:00,73.8,70.5,0.00,SE,136,0.0,0.0,89,0.00, ,,-99.99,VWS V12.07,2013-10-04 08:09:00,
2013-10-04 04:14:00,74.3,71.2,0.00,SE,136,0.0,0.0,90,0.00, ,,-99.99,VWS V12.07,2013-10-04 08:14:00,
2013-10-04 04:19:00,73.1,70.2,0.00,SE,136,0.0,0.0,91,0.00, ,,-99.99,VWS V12.07,2013-10-04 08:19:00,
2013-10-04 04:24:00,73.2,70.4,0.00,SE,136,0.0,0.0,91,0.00, ,,-99.99,VWS V12.07,2013-10-04 08:24:00,
2013-10-04 04:29:00,72.5,69.9,0.00,SE,136,0.0,0.0,92,0.00, ,,-99.99,VWS V12.07,2013-10-04 08:29:00,
2013-10-04 04:34:00,73.6,71.0,0.00,SE,136,0.0,0.0,92,0.00, ,,-99.99,VWS V12.07,2013-10-04 08:34:00,
2013-10-04 04:39:00,72.2,69.8,0.00,SE,136,0.0,0.0,92,0.00, ,,-99.99,VWS V12.07,2013-10-04 08:39:00,
2013-10-04 04:44:00,72.7,70.3,0.00,SE,136,0.0,0.0,92,0.00, ,,-99.99,VWS V12.07,2013-10-04 08:44:00,
2013-10-04 04:49:00,73.1,70.6,0.00,SE,136,0.0,0.0,92,0.00, ,,-99.99,VWS V12.07,2013-10-04 08:49:00,
2013-10-04 04:54:00,72.6,70.2,0.00,SE,136,0.0,0.0,92,0.00, ,,-99.99,VWS V12.07,2013-10-04 08:54:00,
2013-10-04 04:59:00,72.3,69.9,0.00,SE,136,0.0,0.0,92,0.00, ,,-99.99,VWS V12.07,2013-10-04 08:59:00,
2013-10-04 05:04:00,71.7,69.4,0.00,SE,136,0.0,0.0,93,0.00, ,,-99.99,VWS V12.07,2013-10-04 09:04:00,
2013-10-04 05:09:00,72.8,70.6,0.00,SE,136,0.0,0.0,93,0.00, ,,-99.99,VWS V12.07,2013-10-04 09:09:00,
2013-10-04 05:14:00,72.6,70.3,0.00,SE,136,0.0,0.0,92,0.00, ,,-99.99,VWS V12.07,2013-10-04 09:14:00,
2013-10-04 05:19:00,73.1,70.8,0.00,SE,136,0.0,0.0,92,0.00, ,,-99.99,VWS V12.07,2013-10-04 09:19:00,
2013-10-04 05:24:00,72.7,70.5,0.00,SE,136,0.0,0.0,93,0.00, ,,-99.99,VWS V12.07,2013-10-04 09:24:00,
2013-10-04 05:29:00,73.3,71.2,0.00,SE,136,0.0,0.0,93,0.00, ,,-99.99,VWS V12.07,2013-10-04 09:29:00,
2013-10-04 05:34:00,71.9,69.9,0.00,SE,136,0.0,0.0,93,0.00, ,,-99.99,VWS V12.07,2013-10-04 09:34:00,
2013-10-04 05:39:00,72.9,70.9,0.00,SE,136,0.0,0.0,94,0.00, ,,-99.99,VWS V12.07,2013-10-04 09:39:00,
2013-10-04 05:44:00,72.2,70.3,0.00,SE,136,0.0,0.0,94,0.00, ,,-99.99,VWS V12.07,2013-10-04 09:44:00,
2013-10-04 05:49:00,72.4,70.7,0.00,SE,136,0.0,0.0,94,0.00, ,,-99.99,VWS V12.07,2013-10-04 09:49:00,
2013-10-04 05:54:00,71.8,70.2,0.00,SE,136,0.0,0.0,95,0.00, ,,-99.99,VWS V12.07,2013-10-04 09:54:00,
2013-10-04 05:59:00,72.3,70.8,0.00,SE,136,0.0,0.0,95,0.00, ,,-99.99,VWS V12.07,2013-10-04 09:59:00,
2013-10-04 06:04:00,72.2,70.8,0.00,SE,136,0.0,0.0,95,0.00, ,,-99.99,VWS V12.07,2013-10-04 10:04:00,
2013-10-04 06:09:00,70.7,69.3,0.00,SE,136,0.0,0.0,95,0.00, ,,-99.99,VWS V12.07,2013-10-04 10:09:00,
2013-10-04 06:14:00,71.7,70.3,0.00,SE,136,0.0,0.0,96,0.00, ,,-99.99,VWS V12.07,2013-10-04 10:14:00,
2013-10-04 06:19:00,72.0,70.7,0.00,SE,136,0.0,0.0,96,0.00, ,,-99.99,VWS V12.07,2013-10-04 10:19:00,
2013-10-04 06:24:00,72.1,70.8,0.00,SE,136,0.0,0.0,96,0.00, ,,-99.99,VWS V12.07,2013-10-04 10:24:00,
2013-10-04 06:29:00,71.8,70.6,0.00,SE,136,0.0,0.0,96,0.00, ,,-99.99,VWS V12.07,2013-10-04 10:29:00,
2013-10-04 06:34:00,72.0,70.9,0.00,SE,136,0.0,0.0,96,0.00, ,,-99.99,VWS V12.07,2013-10-04 10:34:00,
2013-10-04 06:39:00,71.9,70.8,0.00,SE,136,0.0,0.0,96,0.00, ,,-99.99,VWS V12.07,2013-10-04 10:39:00,
2013-10-04 06:44:00,72.0,70.9,0.00,SE,136,0.0,0.0,96,0.00, ,,-99.99,VWS V12.07,2013-10-04 10:44:00,
2013-10-04 06:49:00,71.8,70.8,0.00,SE,136,0.0,0.0,97,0.00, ,,-99.99,VWS V12.07,2013-10-04 10:49:00,
2013-10-04 06:54:00,71.8,70.7,0.00,SE,136,0.0,0.0,96,0.00, ,,-99.99,VWS V12.07,2013-10-04 10:54:00,
2013-10-04 06:59:00,71.6,70.5,0.00,SE,136,0.0,0.0,96,0.00, ,,-99.99,VWS V12.07,2013-10-04 10:59:00,
2013-10-04 07:04:00,71.7,70.8,0.00,SE,136,0.0,0.0,97,0.00, ,,-99.99,VWS V12.07,2013-10-04 11:04:00,
2013-10-04 07:09:00,71.5,70.5,0.00,SE,136,0.0,0.0,97,0.00, ,,-99.99,VWS V12.07,2013-10-04 11:09:00,
2013-10-04 07:14:00,71.7,70.7,0.00,SE,136,0.0,0.0,97,0.00, ,,-99.99,VWS V12.07,2013-10-04 11:14:00,
2013-10-04 07:19:00,71.2,70.2,0.00,SE,136,0.0,0.0,97,0.00, ,,-99.99,VWS V12.07,2013-10-04 11:19:00,
2013-10-04 07:24:00,71.8,70.9,0.00,SE,136,0.0,0.0,97,0.00, ,,-99.99,VWS V12.07,2013-10-04 11:24:00,
2013-10-04 07:29:00,71.1,70.2,0.00,SE,136,0.0,0.0,97,0.00, ,,-99.99,VWS V12.07,2013-10-04 11:29:00,
2013-10-04 07:34:00,71.3,70.4,0.00,SE,136,0.0,0.0,97,0.00, ,,-99.99,VWS V12.07,2013-10-04 11:34:00,
2013-10-04 07:39:00,72.1,71.2,0.00,SE,136,0.0,0.0,97,0.00, ,,-99.99,VWS V12.07,2013-10-04 11:39:00,
2013-10-04 07:44:00,72.0,71.1,0.00,SE,136,0.0,0.0,97,0.00, ,,-99.99,VWS V12.07,2013-10-04 11:44:00,
2013-10-04 07:49:00,71.6,70.7,0.00,SE,136,0.0,0.0,97,0.00, ,,-99.99,VWS V12.07,2013-10-04 11:49:00,
2013-10-04 07:54:00,71.8,70.9,0.00,SE,136,0.0,0.0,97,0.00, ,,-99.99,VWS V12.07,2013-10-04 11:54:00,
2013-10-04 07:59:00,71.8,70.8,0.00,SE,136,0.0,0.0,97,0.00, ,,-99.99,VWS V12.07,2013-10-04 11:59:00,
2013-10-04 08:04:00,71.7,70.7,0.00,SE,136,0.0,0.0,96,0.00, ,,-99.99,VWS V12.07,2013-10-04 12:04:00,
2013-10-04 08:09:00,72.1,71.0,0.00,SE,136,0.0,0.0,96,0.00, ,,-99.99,VWS V12.07,2013-10-04 12:09:00,
2013-10-04 08:14:00,72.9,71.8,0.00,SE,136,0.0,0.0,96,0.00, ,,-99.99,VWS V12.07,2013-10-04 12:14:00,
2013-10-04 08:19:00,72.5,71.3,0.00,SE,136,0.0,0.0,96,0.00, ,,-99.99,VWS V12.07,2013-10-04 12:19:00,
2013-10-04 08:24:00,72.2,71.0,0.00,SE,136,0.0,0.0,96,0.00, ,,-99.99,VWS V12.07,2013-10-04 12:24:00,
2013-10-04 08:29:00,73.4,72.1,0.00,SE,136,0.0,0.0,96,0.00, ,,-99.99,VWS V12.07,2013-10-04 12:29:00,
2013-10-04 08:34:00,73.8,72.4,0.00,SE,136,0.0,0.0,96,0.00, ,,-99.99,VWS V12.07,2013-10-04 12:34:00,
2013-10-04 08:39:00,73.4,71.8,0.00,SE,136,0.0,0.0,95,0.00, ,,-99.99,VWS V12.07,2013-10-04 12:39:00,
2013-10-04 08:44:00,73.5,71.9,0.00,SE,136,0.0,0.0,95,0.00, ,,-99.99,VWS V12.07,2013-10-04 12:44:00,
2013-10-04 08:49:00,74.5,72.6,0.00,SE,136,0.0,0.0,94,0.00, ,,-99.99,VWS V12.07,2013-10-04 12:49:00,
2013-10-04 08:54:00,74.3,72.1,0.00,SE,136,0.0,0.0,93,0.00, ,,-99.99,VWS V12.07,2013-10-04 12:54:00,
2013-10-04 08:59:00,75.0,72.7,0.00,SE,136,0.0,0.0,92,0.00, ,,-99.99,VWS V12.07,2013-10-04 12:59:00,
2013-10-04 09:04:00,75.0,72.5,0.00,SE,136,0.0,0.0,92,0.00, ,,-99.99,VWS V12.07,2013-10-04 13:04:00,
2013-10-04 09:09:00,75.3,72.7,0.00,SE,136,0.0,0.0,92,0.00, ,,-99.99,VWS V12.07,2013-10-04 13:09:00,
2013-10-04 09:14:00,74.7,71.8,0.00,SE,136,0.0,0.0,91,0.00, ,,-99.99,VWS V12.07,2013-10-04 13:14:00,
2013-10-04 09:19:00,75.3,72.0,0.00,SE,136,0.0,0.0,89,0.00, ,,-99.99,VWS V12.07,2013-10-04 13:19:00,
2013-10-04 09:24:00,75.7,71.8,0.00,East,91,0.0,3.4,88,0.00, ,,-99.99,VWS V12.07,2013-10-04 13:24:00,
2013-10-04 09:29:00,76.5,72.5,0.00,East,91,0.0,3.4,87,0.00, ,,-99.99,VWS V12.07,2013-10-04 13:29:00,
2013-10-04 09:34:00,76.7,72.1,0.00,South,180,0.0,3.4,86,0.00, ,,-99.99,VWS V12.07,2013-10-04 13:34:00,
2013-10-04 09:39:00,76.7,71.4,0.00,South,180,0.0,3.4,84,0.00, ,,-99.99,VWS V12.07,2013-10-04 13:39:00,
2013-10-04 09:44:00,77.3,70.5,0.00,South,180,0.0,0.0,80,0.00, ,,-99.99,VWS V12.07,2013-10-04 13:44:00,
2013-10-04 09:49:00,77.1,69.5,0.00,South,180,0.0,0.0,77,0.00, ,,-99.99,VWS V12.07,2013-10-04 13:49:00,
2013-10-04 09:54:00,77.4,68.5,0.00,SSE,159,0.0,2.3,74,0.00, ,,-99.99,VWS V12.07,2013-10-04 13:54:00,
2013-10-04 09:59:00,77.1,66.1,0.00,SSE,159,0.0,2.3,69,0.00, ,,-99.99,VWS V12.07,2013-10-04 13:59:00,
2013-10-04 10:04:00,78.1,69.3,0.00,SSE,159,0.0,0.0,74,0.00, ,,-99.99,VWS V12.07,2013-10-04 14:04:00,
2013-10-04 10:09:00,78.2,69.2,0.00,SSE,159,0.0,0.0,74,0.00, ,,-99.99,VWS V12.07,2013-10-04 14:09:00,
2013-10-04 10:14:00,78.5,68.4,0.00,SSE,159,0.0,0.0,71,0.00, ,,-99.99,VWS V12.07,2013-10-04 14:14:00,
2013-10-04 10:19:00,79.0,67.3,0.00,SSE,159,0.0,0.0,67,0.00, ,,-99.99,VWS V12.07,2013-10-04 14:19:00,
2013-10-04 10:24:00,78.2,66.2,0.00,SSE,159,0.0,0.0,67,0.00, ,,-99.99,VWS V12.07,2013-10-04 14:24:00,
2013-10-04 10:29:00,78.0,66.0,0.00,SSE,159,0.0,0.0,67,0.00, ,,-99.99,VWS V12.07,2013-10-04 14:29:00,
2013-10-04 10:34:00,78.5,66.7,0.00,SSE,157,0.0,4.7,67,0.00, ,,-99.99,VWS V12.07,2013-10-04 14:34:00,
2013-10-04 10:39:00,78.8,66.8,0.00,SSE,157,0.0,4.7,67,0.00, ,,-99.99,VWS V12.07,2013-10-04 14:39:00,
2013-10-04 10:44:00,77.5,65.7,0.00,SSW,209,4.8,4.8,67,0.00, ,,-99.99,VWS V12.07,2013-10-04 14:44:00,
2013-10-04 10:49:00,78.3,66.6,0.00,South,184,3.2,5.0,67,0.00, ,,-99.99,VWS V12.07,2013-10-04 14:49:00,
2013-10-04 10:54:00,78.5,66.7,0.00,South,191,4.8,5.3,67,0.00, ,,-99.99,VWS V12.07,2013-10-04 14:54:00,
2013-10-04 10:59:00,78.4,66.0,0.00,South,187,4.9,6.6,66,0.00, ,,-99.99,VWS V12.07,2013-10-04 14:59:00,
2013-10-04 11:04:00,78.7,67.1,0.00,SW,223,7.0,8.5,68,0.00, ,,-99.99,VWS V12.07,2013-10-04 15:04:00,
2013-10-04 11:09:00,78.5,67.1,0.00,SW,223,7.8,8.5,68,0.00, ,,-99.99,VWS V12.07,2013-10-04 15:09:00,
2013-10-04 11:14:00,78.0,66.2,0.00,SSW,205,5.0,8.5,67,0.00, ,,-99.99,VWS V12.07,2013-10-04 15:14:00,
2013-10-04 11:19:00,78.1,66.3,0.00,SSW,192,4.6,8.5,67,0.00, ,,-99.99,VWS V12.07,2013-10-04 15:19:00,
2013-10-04 11:24:00,78.4,66.2,0.00,SW,220,5.0,6.0,66,0.00, ,,-99.99,VWS V12.07,2013-10-04 15:24:00,
2013-10-04 11:29:00,77.9,65.6,0.00,SW,225,4.3,6.0,66,0.00, ,,-99.99,VWS V12.07,2013-10-04 15:29:00,
2013-10-04 11:34:00,78.8,66.4,0.00,SSW,205,4.3,6.0,66,0.00, ,,-99.99,VWS V12.07,2013-10-04 15:34:00,
2013-10-04 11:39:00,78.5,65.5,0.00,SW,215,5.8,6.3,64,0.00, ,,-99.99,VWS V12.07,2013-10-04 15:39:00,
2013-10-04 11:44:00,77.8,65.3,0.00,SSW,198,5.3,7.0,65,0.00, ,,-99.99,VWS V12.07,2013-10-04 15:44:00,
2013-10-04 11:49:00,78.9,66.6,0.00,SSW,192,3.0,7.0,66,0.00, ,,-99.99,VWS V12.07,2013-10-04 15:49:00,
2013-10-04 11:54:00,78.9,66.7,0.00,SSW,206,7.7,8.5,66,0.00, ,,-99.99,VWS V12.07,2013-10-04 15:54:00,
2013-10-04 11:59:00,78.8,67.1,0.00,SW,216,7.1,9.3,67,0.00, ,,-99.99,VWS V12.07,2013-10-04 15:59:00,
2013-10-04 12:04:00,77.8,65.6,0.00,SSW,213,7.8,8.6,66,0.00, ,,-99.99,VWS V12.07,2013-10-04 16:04:00,
2013-10-04 12:09:00,79.1,66.9,0.00,SSW,201,6.9,9.4,66,0.00, ,,-99.99,VWS V12.07,2013-10-04 16:09:00,
2013-10-04 12:14:00,78.9,66.1,0.00,SSW,208,8.1,9.9,65,0.00, ,,-99.99,VWS V12.07,2013-10-04 16:14:00,
2013-10-04 12:19:00,78.8,66.5,0.00,SSE,168,5.8,10.0,66,0.00, ,,-99.99,VWS V12.07,2013-10-04 16:19:00,
2013-10-04 12:24:00,79.5,66.3,0.00,SW,236,7.1,9.6,64,0.00, ,,-99.99,VWS V12.07,2013-10-04 16:24:00,
2013-10-04 12:29:00,79.0,66.6,0.00,SW,220,5.9,9.9,66,0.00, ,,-99.99,VWS V12.07,2013-10-04 16:29:00,
2013-10-04 12:34:00,78.8,66.5,0.00,SSW,212,7.3,9.9,66,0.00, ,,-99.99,VWS V12.07,2013-10-04 16:34:00,
2013-10-04 12:39:00,79.0,67.2,0.00,South,184,8.6,9.9,67,0.00, ,,-99.99,VWS V12.07,2013-10-04 16:39:00,
2013-10-04 12:44:00,79.0,66.9,0.00,SSW,209,7.0,9.8,66,0.00, ,,-99.99,VWS V12.07,2013-10-04 16:44:00,
2013-10-04 12:49:00,78.4,66.3,0.00,SSW,204,8.8,9.8,66,0.00, ,,-99.99,VWS V12.07,2013-10-04 16:49:00,
2013-10-04 12:54:00,78.3,65.5,0.00,SSW,194,7.2,10.7,65,0.00, ,,-99.99,VWS V12.07,2013-10-04 16:54:00,
2013-10-04 12:59:00,79.2,67.0,0.00,SSW,204,7.1,10.7,66,0.00, ,,-99.99,VWS V12.07,2013-10-04 16:59:00,
2013-10-04 13:04:00,78.7,66.7,0.00,SSW,201,8.0,10.7,67,0.00, ,,-99.99,VWS V12.07,2013-10-04 17:04:00,
2013-10-04 13:09:00,78.8,67.0,0.00,SSW,204,8.9,11.6,67,0.00, ,,-99.99,VWS V12.07,2013-10-04 17:09:00,
2013-10-04 13:14:00,78.2,66.8,0.00,South,190,7.3,11.6,68,0.00, ,,-99.99,VWS V12.07,2013-10-04 17:14:00,
2013-10-04 13:19:00,78.2,66.3,0.00,SSE,149,7.8,11.6,67,0.00, ,,-99.99,VWS V12.07,2013-10-04 17:19:00,
2013-10-04 13:24:00,78.7,66.8,0.00,South,187,10.6,10.6,67,0.00, ,,-99.99,VWS V12.07,2013-10-04 17:24:00,
2013-10-04 13:29:00,79.4,67.7,0.00,SSW,201,8.0,11.1,68,0.00, ,,-99.99,VWS V12.07,2013-10-04 17:29:00,
2013-10-04 13:34:00,79.3,67.3,0.00,SSW,212,7.9,11.1,67,0.00, ,,-99.99,VWS V12.07,2013-10-04 17:34:00,
2013-10-04 13:59:00,78.8,67.4,0.00,SSW,209,8.2,12.2,68,0.00, ,,-99.99,VWS V12.07,2013-10-04 17:59:00,
2013-10-04 14:04:00,78.8,66.7,0.00,SSW,209,9.2,11.2,66,0.00, ,,-99.99,VWS V12.07,2013-10-04 18:04:00,
2013-10-04 14:09:00,78.8,66.5,0.00,SSW,211,7.0,11.2,66,0.00, ,,-99.99,VWS V12.07,2013-10-04 18:09:00,
2013-10-04 14:14:00,78.8,67.1,0.00,SSW,211,11.2,11.2,67,0.00, ,,-99.99,VWS V12.07,2013-10-04 18:14:00,
2013-10-04 14:19:00,78.8,66.2,0.00,SSW,198,8.8,11.2,65,0.00, ,,-99.99,VWS V12.07,2013-10-04 18:19:00,
2013-10-04 14:24:00,78.0,65.2,0.00,SSW,209,8.8,11.6,65,0.00, ,,-99.99,VWS V12.07,2013-10-04 18:24:00,
2013-10-04 14:29:00,78.3,65.4,0.00,SSW,212,9.4,11.6,64,0.00, ,,-99.99,VWS V12.07,2013-10-04 18:29:00,
2013-10-04 14:34:00,78.7,66.6,0.00,SSW,206,9.6,11.6,66,0.00, ,,-99.99,VWS V12.07,2013-10-04 18:34:00,
2013-10-04 14:39:00,78.4,65.1,0.00,SW,219,9.6,11.6,64,0.00, ,,-99.99,VWS V12.07,2013-10-04 18:39:00,
2013-10-04 14:44:00,78.7,65.0,0.00,SW,215,8.6,10.4,63,0.00, ,,-99.99,VWS V12.07,2013-10-04 18:44:00,
2013-10-04 14:49:00,78.7,65.0,0.00,SSW,204,8.5,10.8,63,0.00, ,,-99.99,VWS V12.07,2013-10-04 18:49:00,
2013-10-04 14:54:00,79.4,65.9,0.00,SSW,194,8.5,10.8,64,0.00, ,,-99.99,VWS V12.07,2013-10-04 18:54:00,
2013-10-04 14:59:00,78.4,66.5,0.00,SSW,211,8.6,11.6,67,0.00, ,,-99.99,VWS V12.07,2013-10-04 18:59:00,
2013-10-04 15:04:00,78.7,66.9,0.00,SW,216,8.0,11.9,67,0.00, ,,-99.99,VWS V12.07,2013-10-04 19:04:00,
2013-10-04 15:09:00,78.2,66.6,0.00,SW,220,8.5,11.9,68,0.00, ,,-99.99,VWS V12.07,2013-10-04 19:09:00,
2013-10-04 15:14:00,78.3,65.5,0.00,SSW,212,10.6,11.9,65,0.00, ,,-99.99,VWS V12.07,2013-10-04 19:14:00,
2013-10-04 15:19:00,78.0,66.7,0.00,SSW,206,8.5,11.9,68,0.00, ,,-99.99,VWS V12.07,2013-10-04 19:19:00,
2013-10-04 15:24:00,77.5,64.8,0.00,SW,216,9.8,11.2,65,0.00, ,,-99.99,VWS V12.07,2013-10-04 19:24:00,
2013-10-04 15:29:00,78.4,67.6,0.00,SSW,212,9.4,11.4,69,0.00, ,,-99.99,VWS V12.07,2013-10-04 19:29:00,
2013-10-04 15:34:00,78.8,68.1,0.00,SSW,201,9.3,11.4,70,0.00, ,,-99.99,VWS V12.07,2013-10-04 19:34:00,
2013-10-04 15:39:00,78.7,67.6,0.00,SSW,201,7.0,11.4,69,0.00, ,,-99.99,VWS V12.07,2013-10-04 19:39:00,
2013-10-04 15:44:00,78.5,67.4,0.00,SSW,208,9.2,10.8,69,0.00, ,,-99.99,VWS V12.07,2013-10-04 19:44:00,
2013-10-04 15:49:00,78.1,67.5,0.00,SSW,199,8.9,11.2,70,0.00, ,,-99.99,VWS V12.07,2013-10-04 19:49:00,
2013-10-04 15:54:00,78.2,67.4,0.00,SSW,211,8.3,11.9,69,0.00, ,,-99.99,VWS V12.07,2013-10-04 19:54:00,
2013-10-04 15:59:00,77.9,67.8,0.00,SSW,199,9.5,11.9,71,0.00, ,,-99.99,VWS V12.07,2013-10-04 19:59:00,
2013-10-04 16:04:00,77.2,66.7,0.00,SSW,198,8.1,11.4,70,0.00, ,,-99.99,VWS V12.07,2013-10-04 20:04:00,
2013-10-04 16:09:00,77.9,67.5,0.00,South,185,6.8,11.4,70,0.00, ,,-99.99,VWS V12.07,2013-10-04 20:09:00,
2013-10-04 16:14:00,78.1,67.9,0.00,SSW,213,8.6,11.4,71,0.00, ,,-99.99,VWS V12.07,2013-10-04 20:14:00,
2013-10-04 16:19:00,78.3,68.2,0.00,SSE,164,6.3,11.4,71,0.00, ,,-99.99,VWS V12.07,2013-10-04 20:19:00,
2013-10-04 16:24:00,78.3,67.7,0.00,SSW,206,6.7,9.3,70,0.00, ,,-99.99,VWS V12.07,2013-10-04 20:24:00,
2013-10-04 16:28:00,78.5,68.2,0.00,South,190,9.4,9.6,71,0.00, ,,-99.99,VWS V12.07,2013-10-04 20:28:00,
2013-10-04 16:29:00,78.5,68.2,0.00,South,190,9.4,9.6,71,0.00, ,,-99.99,VWS V12.07,2013-10-04 20:29:00,
2013-10-04 16:34:00,78.5,68.2,0.00,South,190,9.4,9.6,71,0.00, ,,-99.99,VWS V12.07,2013-10-04 20:34:00,
2013-10-04 17:25:00,78.5,68.2,0.00,SSW,212,8.9,9.6,71,0.00, ,,-99.99,VWS V12.07,2013-10-04 21:25:00,
2013-10-04 17:30:00,77.5,68.8,0.00,SSW,212,6.0,9.6,75,0.00, ,,-99.99,VWS V12.07,2013-10-04 21:30:00,
2013-10-04 17:35:00,77.7,69.2,0.00,SW,220,6.8,9.6,75,0.00, ,,-99.99,VWS V12.07,2013-10-04 21:35:00,
2013-10-04 17:40:00,78.3,69.5,0.00,SSW,212,8.3,8.8,74,0.00, ,,-99.99,VWS V12.07,2013-10-04 21:40:00,
2013-10-04 17:45:00,77.7,68.8,0.00,SSW,213,8.4,9.2,74,0.00, ,,-99.99,VWS V12.07,2013-10-04 21:45:00,
2013-10-04 17:50:00,78.1,69.5,0.00,South,190,8.4,10.1,75,0.00, ,,-99.99,VWS V12.07,2013-10-04 21:50:00,
2013-10-04 17:55:00,77.1,68.5,0.00,South,180,8.9,10.1,75,0.00, ,,-99.99,VWS V12.07,2013-10-04 21:55:00,
2013-10-04 18:00:00,77.5,68.9,0.00,South,191,7.3,10.1,75,0.00, ,,-99.99,VWS V12.07,2013-10-04 22:00:00,
2013-10-04 18:05:00,77.3,0.0,0.00,SSW,201,8.0,10.1,0,0.00, ,,-99.99,VWS V12.07,2013-10-04 22:05:00,
2013-10-04 18:10:00,76.4,68.2,0.00,SSW,195,7.6,10.1,76,0.00, ,,-99.99,VWS V12.07,2013-10-04 22:10:00,
2013-10-04 18:15:00,76.3,68.5,0.00,SW,228,5.7,10.1,77,0.00, ,,-99.99,VWS V12.07,2013-10-04 22:15:00,
2013-10-04 18:19:00,77.2,68.8,0.00,SSW,199,7.9,10.5,75,99.99, ,,-99.99,VWS V12.07,2013-10-04 22:19:00,
2013-10-04 18:20:00,77.2,68.8,0.00,SSW,199,7.9,10.5,75,99.99, ,,-99.99,VWS V12.07,2013-10-04 22:20:00,
2013-10-04 18:25:00,77.2,68.8,0.00,SSW,199,7.9,10.5,75,99.99, ,,-99.99,VWS V12.07,2013-10-04 22:25:00,
2013-10-04 18:57:00,77.2,68.8,0.00,South,184,7.8,10.5,75,0.00, ,,-99.99,VWS V12.07,2013-10-04 22:57:00,
2013-10-04 18:58:00,77.2,68.8,0.00,South,184,7.8,10.5,75,0.00, ,,-99.99,VWS V12.07,2013-10-04 22:58:00,
2013-10-04 19:03:00,77.2,68.8,0.00,South,184,7.8,10.5,75,0.00, ,,-99.99,VWS V12.07,2013-10-04 23:03:00,
2013-10-04 19:19:00,77.2,68.9,0.00,South,187,9.3,10.5,76,0.00, ,,-99.99,VWS V12.07,2013-10-04 23:19:00,
2013-10-04 19:24:00,77.2,0.0,0.00,SSW,199,6.2,10.5,0,0.00, ,,-99.99,VWS V12.07,2013-10-04 23:24:00,
2013-10-04 19:29:00,77.2,0.0,0.00,SSW,199,6.2,10.5,0,0.00, ,,-99.99,VWS V12.07,2013-10-04 23:29:00,
2013-10-04 19:39:00,75.5,0.0,0.00,SW,222,5.0,10.5,0,0.00, ,,-99.99,VWS V12.07,2013-10-04 23:39:00,
2013-10-04 19:44:00,75.9,70.2,0.00,SW,229,6.1,7.2,82,0.00, ,,-99.99,VWS V12.07,2013-10-04 23:44:00,
2013-10-04 19:49:00,75.6,69.9,0.00,SSW,199,5.5,7.2,82,0.00, ,,-99.99,VWS V12.07,2013-10-04 23:49:00,
2013-10-04 19:54:00,76.3,70.6,0.00,SSW,206,5.9,7.2,83,0.00, ,,-99.99,VWS V12.07,2013-10-04 23:54:00,
2013-10-04 19:59:00,75.7,69.9,0.00,SSW,204,7.1,7.9,82,0.00, ,,-99.99,VWS V12.07,2013-10-04 23:59:00,
2013-10-04 20:04:00,76.1,70.5,0.00,SW,220,5.0,6.9,83,0.00, ,,-99.99,VWS V12.07,2013-10-05 00:04:00,
2013-10-04 20:09:00,76.0,70.4,0.00,SSW,197,5.7,6.9,83,0.00, ,,-99.99,VWS V12.07,2013-10-05 00:09:00,
2013-10-04 20:14:00,75.3,69.6,0.00,SE,146,4.3,6.9,82,0.00, ,,-99.99,VWS V12.07,2013-10-05 00:14:00,
2013-10-04 20:19:00,75.8,70.2,0.00,South,171,4.5,6.9,83,99.99, ,,-99.99,VWS V12.07,2013-10-05 00:19:00,
2013-10-04 20:24:00,76.4,71.0,0.00,South,181,3.2,6.6,83,0.00, ,,-99.99,VWS V12.07,2013-10-05 00:24:00,
2013-10-04 20:29:00,75.2,69.8,0.00,SSW,198,4.5,7.0,83,0.00, ,,-99.99,VWS V12.07,2013-10-05 00:29:00,
2013-10-04 20:34:00,76.1,70.6,0.00,SSW,204,4.7,7.0,83,0.00, ,,-99.99,VWS V12.07,2013-10-05 00:34:00,
2013-10-04 20:39:00,75.8,70.6,0.00,SSW,202,5.2,7.0,84,0.00, ,,-99.99,VWS V12.07,2013-10-05 00:39:00,
2013-10-04 20:44:00,75.2,69.8,0.00,SSW,206,6.0,7.1,83,0.00, ,,-99.99,VWS V12.07,2013-10-05 00:44:00,
2013-10-04 20:46:00,76.3,70.8,0.00,SW,219,5.8,7.1,83,0.00, ,,-99.99,VWS V12.07,2013-10-05 00:46:00,
2013-10-04 20:49:00,76.3,70.8,0.00,SW,219,5.8,7.1,83,0.00, ,,-99.99,VWS V12.07,2013-10-05 00:49:00,
2013-10-04 20:54:00,76.3,70.8,0.00,SW,219,5.8,7.1,83,0.00, ,,-99.99,VWS V12.07,2013-10-05 00:54:00,
2013-10-04 21:38:00,75.8,70.3,0.00,SSW,192,4.8,7.1,83,99.99, ,,-99.99,VWS V12.07,2013-10-05 01:38:00,
2013-10-04 21:43:00,75.8,70.3,0.00,SSW,192,4.8,7.1,83,99.99, ,,-99.99,VWS V12.07,2013-10-05 01:43:00,
2013-10-04 22:12:00,75.9,0.0,0.00,South,185,4.5,7.1,0,0.00, ,,-99.99,VWS V12.07,2013-10-05 02:12:00,
2013-10-04 22:17:00,74.9,69.8,0.00,SSE,159,5.5,7.3,84,0.00, ,,-99.99,VWS V12.07,2013-10-05 02:17:00,
2013-10-04 22:22:00,75.0,69.8,0.00,South,180,6.4,7.0,84,0.12, ,,-99.99,VWS V12.07,2013-10-05 02:22:00,
2013-10-04 22:27:00,75.0,69.9,0.00,South,190,5.8,7.1,84,0.00, ,,-99.99,VWS V12.07,2013-10-05 02:27:00,
2013-10-04 22:32:00,75.3,70.3,0.00,SSW,194,5.3,7.5,84,99.99, ,,-99.99,VWS V12.07,2013-10-05 02:32:00,
2013-10-04 22:37:00,75.0,69.9,0.00,SSW,197,4.3,7.5,84,0.00, ,,-99.99,VWS V12.07,2013-10-05 02:37:00,
2013-10-04 22:42:00,75.9,70.9,0.00,SSE,149,4.7,6.8,84,0.00, ,,-99.99,VWS V12.07,2013-10-05 02:42:00,
2013-10-04 22:47:00,75.4,70.4,0.00,SSE,159,4.5,7.4,85,0.00, ,,-99.99,VWS V12.07,2013-10-05 02:47:00,
2013-10-04 22:52:00,74.8,70.0,0.00,SSW,197,4.2,7.6,85,0.00, ,,-99.99,VWS V12.07,2013-10-05 02:52:00,
2013-10-04 22:57:00,75.7,70.9,0.00,South,175,5.7,7.6,85,0.00, ,,-99.99,VWS V12.07,2013-10-05 02:57:00,
2013-10-04 23:02:00,75.2,70.4,0.00,South,185,5.1,7.3,85,0.00, ,,-99.99,VWS V12.07,2013-10-05 03:02:00,
2013-10-04 23:07:00,76.0,71.3,0.00,South,175,6.3,7.3,85,0.00, ,,-99.99,VWS V12.07,2013-10-05 03:07:00,
2013-10-04 23:12:00,75.0,70.3,0.00,SSW,194,5.2,7.3,85,0.00, ,,-99.99,VWS V12.07,2013-10-05 03:12:00,
2013-10-04 23:17:00,75.1,70.4,0.00,SSW,192,0.0,7.3,85,0.00, ,,-99.99,VWS V12.07,2013-10-05 03:17:00,
2013-10-04 23:22:00,75.0,70.4,0.00,SSW,201,4.5,5.6,86,0.12, ,,-99.99,VWS V12.07,2013-10-05 03:22:00,
2013-10-04 23:27:00,74.7,70.1,0.00,South,171,5.4,6.8,86,0.00, ,,-99.99,VWS V12.07,2013-10-05 03:27:00,
2013-10-04 23:32:00,75.0,70.5,0.00,South,171,5.7,6.8,86,99.99, ,,-99.99,VWS V12.07,2013-10-05 03:32:00,
2013-10-04 23:37:00,74.2,69.7,0.00,South,177,4.5,6.9,86,0.00, ,,-99.99,VWS V12.07,2013-10-05 03:37:00,
2013-10-04 23:42:00,74.5,70.0,0.00,SSW,195,5.5,6.4,86,0.00, ,,-99.99,VWS V12.07,2013-10-05 03:42:00,
2013-10-04 23:47:00,74.5,70.1,0.00,South,170,5.8,6.6,86,0.00, ,,-99.99,VWS V12.07,2013-10-05 03:47:00,
2013-10-04 23:52:00,75.0,70.7,0.00,South,173,5.5,6.6,86,0.00, ,,-99.99,VWS V12.07,2013-10-05 03:52:00,
2013-10-04 23:57:00,74.6,70.4,0.00,SSW,192,4.5,6.6,87,0.00, ,,-99.99,VWS V12.07,2013-10-05 03:57:00,